[[{"header":{"parameterUnit":"m.s-1","parameterCategory":1,"la1":30.2992,"la2":30.254,"lo1":-89.0895,"lo2":-89.0443,"dy":0.0025,"dx":0.0025,"nx":19,"ny":19,"refTime":"2026-04-02T09:00:00:Z","depth":0,"parameterNumber":2,"parameterNumberName":"U-component_of_WINDS"},"data":[0,0,0,-5.1164,-5.1169,-5.1415,-5.1416,-5.1732,-5.1735,0,0,0,0,0,0,0,0,0,0,0,-5.1089,-5.1091,-5.1163,-5.1169,-5.1415,-5.1417,-5.1732,-5.1735,0,0,0,0,0,0,0,0,0,0,0,-5.1088,-5.109,-5.1093,-5.117,-5.1415,-5.1417,-5.1731,-5.1546,0,0,0,0,0,0,0,0,0,0,-5.1307,-5.1234,-5.109,-5.1093,-5.1172,-5.1415,-5.1417,-5.1537,-5.1557,-5.162,0,-5.1673,0,-5.1709,-5.1756,-5.1757,0,0,0,-5.1172,-5.1217,-5.1285,-5.1093,-5.1174,-5.1415,-5.1305,-5.1548,-5.1571,-5.1647,-5.1678,-5.1689,-5.1714,-5.1758,-5.176,-5.2108,-5.211,0,0,-5.1158,-5.1132,-5.1269,-5.13,-5.1259,-5.1297,-5.1313,-5.1562,-5.1595,-5.1679,-5.1697,-5.1719,-5.176,-5.1762,-5.2107,-5.2109,0,0,0,-5.1118,-5.1123,-5.1185,-5.1287,-5.1331,-5.1304,-5.1322,-5.1584,-5.1606,-5.17,-5.1723,-5.1762,-5.1766,-5.2105,-5.2108,-5.2154,0,0,0,-5.1109,-5.1099,-5.1179,-5.1165,-5.1327,-5.146,-5.1338,-5.1588,-5.1617,-5.1721,-5.1762,-5.1769,-5.2104,-5.2107,-5.215,-5.218,0,0,0,-5.1074,-5.1095,-5.1129,-5.1164,-5.1268,-5.1456,-5.1493,-5.1595,-5.1631,-5.1757,-5.177,-5.2103,-5.2106,-5.2145,-5.2173,-5.2263,0,0,0,-5.1028,-5.117,-5.113,-5.1298,-5.1266,-5.1484,-5.1492,-5.1656,-5.177,-5.1763,-5.2104,-5.2107,-5.2144,-5.2169,-5.2258,-5.233,-5.2359,0,0,-5.1192,-5.1189,-5.1289,-5.1261,-5.1478,-5.1448,-5.1675,-5.1805,-5.1843,-5.2018,-5.2027,-5.2151,-5.2173,-5.2262,-5.2533,-5.2555,0,0,0,-5.1333,-5.1404,-5.1468,-5.1573,-5.1675,-5.1765,-5.1863,-5.1912,-5.2062,-5.1927,-5.221,-5.2224,-5.2277,-5.2313,-5.2332,-5.2378,-5.2124,-5.2123,-5.2123,-5.1526,-5.1565,-5.1734,-5.1802,-5.1906,-5.2006,-5.2093,-5.2176,-5.2187,-5.2254,-5.2305,-5.2465,-5.2506,-5.252,-5.2568,-5.2349,-5.235,-5.235,-5.235,-5.1768,-5.1874,-5.1885,-5.2052,-5.2093,-5.2236,-5.2339,-5.2342,-5.2482,-5.2429,-5.2478,-5.2414,-5.2543,-5.2587,-5.2354,-5.2353,-5.2353,-5.2352,-5.2352,-5.1895,-5.1953,-5.2009,-5.2166,-5.2284,-5.2351,-5.2483,-5.2518,-5.2552,-5.2601,-5.2657,-5.2657,-5.2658,-5.2626,-5.2627,-5.2627,-5.2628,-5.2628,-5.2628,-5.2004,-5.2066,-5.2172,-5.2292,-5.2365,-5.2465,-5.2569,-5.2643,-5.2733,-5.2748,-5.2749,-5.2751,-5.255,-5.2496,-5.2637,-5.2636,-5.2634,-5.2634,-5.2633,-5.2228,-5.2183,-5.2346,-5.2419,-5.2564,-5.2678,-5.2722,-5.2869,-5.2935,-5.2999,-5.2994,-5.284,-5.2839,-5.2824,-5.2779,-5.2986,-5.2986,-5.2986,-5.2986,-5.2333,-5.2337,-5.2511,-5.2624,-5.2741,-5.2797,-5.2982,-5.3066,-5.3145,-5.3189,-5.3166,-5.3111,-5.3095,-5.3104,-5.3083,-5.3042,-5.331,-5.3311,-5.3311,-5.2472,-5.2489,-5.2637,-5.2712,-5.2829,-5.2929,-5.3104,-5.3236,-5.3318,-5.3325,-5.3224,-5.321,-5.3123,-5.3093,-5.3092,-5.3059,-5.2985,0,0]},{"header":{"parameterUnit":"m.s-1","parameterCategory":1,"la1":30.2992,"la2":30.254,"lo1":-89.0895,"lo2":-89.0443,"dy":0.0025,"dx":0.0025,"nx":19,"ny":19,"refTime":"2026-04-02T09:00:00:Z","depth":0,"parameterNumber":3,"parameterNumberName":"V-component_of_WINDS"},"data":[0,0,0,2.0737,2.0739,2.0811,2.0812,2.0887,2.0888,0,0,0,0,0,0,0,0,0,0,0,2.0707,2.0707,2.0737,2.0739,2.0811,2.0812,2.0887,2.0888,0,0,0,0,0,0,0,0,0,0,0,2.0707,2.0707,2.0707,2.0739,2.0811,2.0812,2.0887,2.0838,0,0,0,0,0,0,0,0,0,0,2.077,2.0734,2.0707,2.0707,2.0739,2.0811,2.0812,2.0836,2.0841,2.0847,0,2.0852,0,2.0871,2.0892,2.0892,0,0,0,2.0745,2.0729,2.0757,2.0707,2.074,2.0811,2.078,2.0839,2.0845,2.0854,2.0853,2.0856,2.0872,2.0892,2.0892,2.0912,2.0911,0,0,2.0741,2.0715,2.0753,2.076,2.075,2.0778,2.0783,2.0843,2.0839,2.0853,2.0858,2.0873,2.0892,2.0893,2.0912,2.0912,0,0,0,2.0725,2.0711,2.0738,2.0757,2.0772,2.078,2.0785,2.0837,2.0848,2.0859,2.0874,2.0893,2.0894,2.0912,2.0912,2.0877,0,0,0,2.0723,2.0702,2.0736,2.0721,2.077,2.0805,2.0778,2.0843,2.0851,2.0874,2.0893,2.0894,2.0912,2.0912,2.0879,2.0865,0,0,0,2.0705,2.07,2.0708,2.0719,2.075,2.0805,2.082,2.0846,2.086,2.0892,2.0894,2.0913,2.0912,2.088,2.0867,2.0863,0,0,0,2.0678,2.0675,2.0707,2.071,2.0749,2.0784,2.082,2.0846,2.087,2.0893,2.0912,2.0912,2.0881,2.0869,2.0864,2.0855,2.0849,0,0,2.066,2.0672,2.0676,2.0707,2.0729,2.0775,2.0791,2.0837,2.0863,2.0893,2.0894,2.0878,2.0868,2.0863,2.0822,2.0816,0,0,0,2.0661,2.0664,2.0675,2.0697,2.0733,2.0762,2.0808,2.0825,2.0852,2.0874,2.0876,2.0871,2.0869,2.0866,2.0861,2.0862,2.0909,2.0909,2.0909,2.0598,2.0633,2.0642,2.0685,2.0706,2.0754,2.0773,2.0803,2.0831,2.0831,2.0841,2.0811,2.0807,2.0803,2.0804,2.0838,2.0838,2.0838,2.0838,2.0575,2.0584,2.0623,2.0646,2.0682,2.07,2.0745,2.0765,2.0786,2.0807,2.0807,2.0827,2.0797,2.0799,2.0836,2.0836,2.0836,2.0837,2.0837,2.0538,2.0549,2.057,2.0606,2.0629,2.0672,2.0692,2.0724,2.0753,2.0754,2.0767,2.0768,2.0773,2.0758,2.0758,2.0758,2.0758,2.0758,2.0758,2.0491,2.0517,2.053,2.0568,2.0587,2.0615,2.0662,2.068,2.0709,2.073,2.0731,2.0758,2.0787,2.0794,2.0756,2.0756,2.0757,2.0757,2.0757,2.0456,2.0469,2.049,2.0509,2.0556,2.0576,2.0617,2.0652,2.0671,2.068,2.0708,2.0724,2.0738,2.0742,2.0748,2.07,2.07,2.07,2.07,2.0425,2.0436,2.0465,2.0492,2.0523,2.0562,2.0583,2.0619,2.0659,2.0673,2.0684,2.0694,2.0697,2.071,2.0714,2.072,2.0667,2.0667,2.0667,2.0406,2.0421,2.0434,2.0474,2.0514,2.0546,2.0567,2.0595,2.0642,2.0666,2.0684,2.0686,2.0703,2.0707,2.0731,2.0737,2.0749,0,0]}]]